Location: Battersea Observatory
(44.4318°N, 76.3841°W)
Time: 20:54:40
(UTC-04:00)

Tiros 1 despin weight - Pass Details

Date: 29 January 2022
Orbit: 592 x 639 km, 48.2° (Epoch: 25 May)

Event Time Altitude Azimuth Distance (km) Brightness Sun altitude
Rises 20:35:40 0° 292° (WNW) 2,911 ? -36.5°
Reaches altitude 10° 20:38:00 10° 288° (WNW) 2,009 ? -37.0°
Enters shadow 20:39:03 17° 285° (WNW) 1,618 ? -37.1°
Maximum altitude 20:42:33 58° 210° (SSW) 737 - -37.7°
Drops below altitude 10° 20:47:02 11° 131° (SE) 1,989 - -38.5°
Sets 20:49:29 0° 128° (SE) 2,931 - -39.0°
